Roseau, MN

10:02 PM CDT on March 27, 2017 (GMT -0500)
Roseau Municipal-Billberg

Weather History for KROX - March, 2013

Change the Weather History Date:

Thursday, March 28, 2013

  Actual Average Record
Temperature  
Mean Temperature 26 °F -  
Max Temperature 42 °F 38 °F 61 °F (1963)
Min Temperature 10 °F 18 °F -18 °F (1970)
Degree Days  
Heating Degree Days 39    
Moisture  
Dew Point 17 °F    
Average Humidity 68    
Maximum Humidity 85    
Minimum Humidity 39    
Precipitation  
Precipitation 0.00 in - - ()
Sea Level Pressure  
Sea Level Pressure 30.26 in    
Wind  
Wind Speed 0 mph (South)    
Max Wind Speed 5 mph    
Max Gust Speed -    
Visibility 10 miles    
Events      
Averages and records for this station are not official NWS values.
T = Trace of Precipitation, MM = Missing Value Source: NWS Daily Summary

Daily Weather History Graph

Daily Weather History Graph

Search for Another Location

Airport or City:

Trip Planner

Search our weather history database for the weather conditions in past years. The results will help you decide how hot, cold, wet, or windy it might be!

Date:

Astronomy

Mar. 28, 2013 Rise Set
Actual Time 7:08 AM CDT 7:48 PM CDT
Civil Twilight 6:36 AM CDT 8:20 PM CDT
Nautical Twilight 5:58 AM CDT 8:58 PM CDT
Astronomical Twilight 5:18 AM CDT 9:37 PM CDT
Moon 9:54 PM CDT 7:27 AM CDT
Length of Visible Light 13h 43m
Length of Day
12h 40m
Full, 98% of the Moon is Illuminated
Mar 28
Full
Apr 2
Last Quarter
Apr 10
New
Apr 18
First Quarter
Apr 25
Full

Hourly Weather History & Observations

Time (CDT) Temp. Windchill Dew Point Humidity Pressure Visibility Wind Dir Wind Speed Gust Speed Precip Events Conditions
12:15 AM 17.6 °F - 12.2 °F 79% 30.30 in 10.0 mi Calm Calm - N/A   Clear
12:34 AM 17.6 °F - 12.2 °F 79% 30.30 in 10.0 mi Calm Calm - N/A   Clear
12:50 AM 12.2 °F - 8.6 °F 85% 30.30 in 10.0 mi Calm Calm - N/A   Clear
1:15 AM 15.8 °F - 10.4 °F 79% 30.30 in 10.0 mi Calm Calm - N/A   Clear
1:34 AM 12.2 °F - 8.6 °F 85% 30.30 in 10.0 mi Calm Calm - N/A   Clear
1:54 AM 10.4 °F - 6.8 °F 85% 30.30 in 10.0 mi Calm Calm - N/A   Clear
2:15 AM 12.2 °F - 8.6 °F 85% 30.30 in 10.0 mi Calm Calm - N/A   Clear
2:34 AM 14.0 °F - 8.6 °F 79% 30.30 in 10.0 mi Calm Calm - N/A   Clear
2:54 AM 14.0 °F - 8.6 °F 79% 30.30 in 10.0 mi Calm Calm - N/A   Clear
3:14 AM 12.2 °F - 8.6 °F 85% 30.30 in 10.0 mi Calm Calm - N/A   Clear
3:34 AM 12.2 °F - 8.6 °F 85% 30.29 in 10.0 mi Calm Calm - N/A   Mostly Cloudy
3:54 AM 14.0 °F - 8.6 °F 79% 30.29 in 10.0 mi Calm Calm - N/A   Mostly Cloudy
4:14 AM 10.4 °F - 5.0 °F 79% 30.29 in 10.0 mi Calm Calm - N/A   Scattered Clouds
4:34 AM 12.2 °F - 6.8 °F 79% 30.29 in 10.0 mi Calm Calm - N/A   Scattered Clouds
4:54 AM 10.4 °F - 6.8 °F 85% 30.29 in 10.0 mi Calm Calm - N/A   Mostly Cloudy
5:14 AM 12.2 °F - 6.8 °F 79% 30.29 in 10.0 mi Calm Calm - N/A   Overcast
5:34 AM 10.4 °F - 6.8 °F 85% 30.29 in 10.0 mi Calm Calm - N/A   Overcast
5:54 AM 10.4 °F - 6.8 °F 85% 30.29 in 10.0 mi Calm Calm - N/A   Mostly Cloudy
6:14 AM 12.2 °F - 8.6 °F 85% 30.28 in 10.0 mi Calm Calm - N/A   Scattered Clouds
6:34 AM 12.2 °F - 6.8 °F 79% 30.28 in 10.0 mi Calm Calm - N/A   Clear
6:54 AM 15.8 °F - 10.4 °F 79% 30.28 in 10.0 mi Calm Calm - N/A   Scattered Clouds
7:14 AM 17.6 °F - 10.4 °F 73% 30.28 in 10.0 mi Calm Calm - N/A   Mostly Cloudy
7:34 AM 14.0 °F - 8.6 °F 79% 30.28 in 10.0 mi Calm Calm - N/A   Overcast
7:54 AM 14.0 °F - 8.6 °F 79% 30.28 in 10.0 mi Calm Calm - N/A   Scattered Clouds
8:14 AM 17.6 °F 12.3 °F 10.4 °F 73% 30.28 in 10.0 mi ESE 3.5 mph - N/A   Scattered Clouds
8:34 AM 19.4 °F - 12.2 °F 74% 30.28 in 10.0 mi Calm Calm - N/A   Mostly Cloudy
8:54 AM 24.8 °F 19.1 °F 15.8 °F 69% 30.28 in 10.0 mi ESE 4.6 mph - N/A   Scattered Clouds
9:14 AM 26.6 °F 22.6 °F 15.8 °F 64% 30.28 in 10.0 mi ESE 3.5 mph - N/A   Scattered Clouds
9:34 AM 28.4 °F - 17.6 °F 64% 30.28 in 10.0 mi Calm Calm - N/A   Scattered Clouds
9:54 AM 26.6 °F 22.6 °F 17.6 °F 69% 30.28 in 10.0 mi East 3.5 mph - N/A   Mostly Cloudy
10:14 AM 26.6 °F - 17.6 °F 69% 30.28 in 10.0 mi Calm Calm - N/A   Mostly Cloudy
10:34 AM 28.4 °F - 19.4 °F 69% 30.28 in 10.0 mi Calm Calm - N/A   Mostly Cloudy
10:54 AM 30.2 °F - 19.4 °F 64% 30.28 in 10.0 mi Calm Calm - N/A   Mostly Cloudy
11:14 AM 32.0 °F - 21.2 °F 64% 30.28 in 10.0 mi Calm Calm - N/A   Mostly Cloudy
11:34 AM 30.2 °F - 21.2 °F 69% 30.28 in 10.0 mi Calm Calm - N/A   Mostly Cloudy
11:54 AM 32.0 °F - 23.0 °F 69% 30.28 in 10.0 mi Calm Calm - N/A   Mostly Cloudy
12:14 PM 33.8 °F - 24.8 °F 70% 30.28 in 10.0 mi Calm Calm - N/A   Scattered Clouds
12:34 PM 33.8 °F - 24.8 °F 70% 30.28 in 10.0 mi Calm Calm - N/A   Scattered Clouds
12:54 PM 35.6 °F - 23.0 °F 60% 30.28 in 10.0 mi Calm Calm - N/A   Scattered Clouds
1:14 PM 37.4 °F - 21.2 °F 52% 30.27 in 10.0 mi Calm Calm - N/A   Scattered Clouds
1:34 PM 37.4 °F 33.8 °F 21.2 °F 52% 30.27 in 10.0 mi SSW 4.6 mph - N/A   Scattered Clouds
1:54 PM 39.2 °F 35.9 °F 21.2 °F 49% 30.26 in 10.0 mi South 4.6 mph - N/A   Scattered Clouds
2:14 PM 39.2 °F 37.0 °F 23.0 °F 52% 30.26 in 10.0 mi SSW 3.5 mph - N/A   Scattered Clouds
2:34 PM 39.2 °F - 21.2 °F 49% 30.26 in 10.0 mi Calm Calm - N/A   Scattered Clouds
2:54 PM 39.2 °F - 21.2 °F 49% 30.25 in 10.0 mi Calm Calm - N/A   Scattered Clouds
3:14 PM 39.2 °F - 21.2 °F 49% 30.25 in 10.0 mi Calm Calm - N/A   Mostly Cloudy
3:34 PM 39.2 °F 37.0 °F 19.4 °F 45% 30.24 in 10.0 mi South 3.5 mph - N/A   Mostly Cloudy
3:54 PM 39.2 °F 37.0 °F 21.2 °F 49% 30.24 in 10.0 mi South 3.5 mph - N/A   Mostly Cloudy
4:14 PM 39.2 °F - 21.2 °F 49% 30.24 in 10.0 mi Calm Calm - N/A   Mostly Cloudy
4:34 PM 41.0 °F 39.0 °F 24.8 °F 53% 30.23 in 10.0 mi SSW 3.5 mph - N/A   Mostly Cloudy
4:54 PM 41.0 °F 39.0 °F 21.2 °F 45% 30.23 in 10.0 mi SW 3.5 mph - N/A   Mostly Cloudy
5:14 PM 41.0 °F - 19.4 °F 42% 30.23 in 10.0 mi Calm Calm - N/A   Mostly Cloudy
5:34 PM 42.8 °F 40.1 °F 19.4 °F 39% 30.23 in 10.0 mi WSW 4.6 mph - N/A   Overcast
5:54 PM 42.8 °F - 19.4 °F 39% 30.23 in 10.0 mi Calm Calm - N/A   Mostly Cloudy
6:14 PM 39.2 °F - 24.8 °F 56% 30.23 in 10.0 mi Calm Calm - N/A   Mostly Cloudy
6:34 PM 39.2 °F - 24.8 °F 56% 30.23 in 10.0 mi Calm Calm - N/A   Mostly Cloudy
6:54 PM 35.6 °F - 28.4 °F 75% 30.23 in 10.0 mi Calm Calm - N/A   Mostly Cloudy
7:14 PM 37.4 °F - 26.6 °F 65% 30.23 in 10.0 mi Calm Calm - N/A   Overcast
7:34 PM 37.4 °F - 24.8 °F 60% 30.23 in 10.0 mi Calm Calm - N/A   Overcast
7:54 PM 37.4 °F - 24.8 °F 60% 30.23 in 10.0 mi Calm Calm - N/A   Overcast
8:14 PM 37.4 °F - 24.8 °F 60% 30.22 in 10.0 mi Calm Calm - N/A   Overcast
8:34 PM 35.6 °F - 24.8 °F 65% 30.22 in 10.0 mi Calm Calm - N/A   Scattered Clouds
8:54 PM 33.8 °F - 26.6 °F 75% 30.23 in 10.0 mi Calm Calm - N/A   Scattered Clouds
9:14 PM 33.8 °F - 24.8 °F 70% 30.23 in 10.0 mi Calm Calm - N/A   Scattered Clouds
9:34 PM 32.0 °F - 23.0 °F 69% 30.23 in 10.0 mi Calm Calm - N/A   Clear
9:54 PM 32.0 °F - 24.8 °F 75% 30.23 in 10.0 mi Calm Calm - N/A   Clear
10:14 PM 30.2 °F - 24.8 °F 80% 30.23 in 10.0 mi Calm Calm - N/A   Clear
10:34 PM 32.0 °F - 24.8 °F 75% 30.23 in 10.0 mi Calm Calm - N/A   Scattered Clouds
10:54 PM 30.2 °F - 24.8 °F 80% 30.23 in 10.0 mi Calm Calm - N/A   Scattered Clouds
11:14 PM 30.2 °F - 23.0 °F 75% 30.23 in 10.0 mi Calm Calm - N/A   Scattered Clouds
11:34 PM 32.0 °F - 23.0 °F 69% 30.23 in 10.0 mi Calm Calm - N/A   Scattered Clouds
11:54 PM 28.4 °F - 21.2 °F 74% 30.23 in 10.0 mi Calm Calm - N/A   Clear